www.pogodaiklimat.ru

Погода и климат >> Архив погоды >> Норвегия >> Аэропорт Haugesund


ПОГОДА в Аэропорту Haugesund

  • Прогноз погоды в Аэропорту Haugesund
  • Монитор погоды в Аэропорту Haugesund

АРХИВ ПОГОДЫ в Аэропорту Haugesund

Время (UTC), дата Ветер
(напр.,м/с)
 
Видим.   Явления Облачность Т
(С)
Тd
(С)
f
(%)
Тe
(С)
Тes
(С)
Комфортность P
(гПа)
Po
(гПа)
Тmin
(С)
Tmax
(С)
R
(мм)
R24
(мм)
S
(см)
04 12.06 В 4
{6}
н/о н/о +15.5 +7.8 60 +15 +15 1018.0 1014.9
05 12.06 В 5
{7}
н/о н/о +15.5 +7.5 59 +14 +14 1017.9 1014.7
06 12.06 В 5
{14}
н/о н/о +15.4 +7.9 61 +14 +14 1017.8 1014.7 +13.4 +18.4
07 12.06 В 6
{11}
н/о н/о +15.5 +7.3 58 +14 +14 1017.9 1014.7
08 12.06 СВ 4
{9}
н/о н/о +15.6 +7.4 58 +15 +15 1018.4 1015.2
09 12.06 СВ 3
{6}
н/о н/о +16.0 +7.0 55 +16 +16 1018.4 1015.2
10 12.06 В 4
{8}
н/о н/о +15.7 +7.7 59 +15 +15 1018.0 1014.8
11 12.06 С 4
{5}
н/о н/о +15.5 +8.5 63 +15 +15 1017.4 1014.2
12 12.06 С 3
{11}
н/о н/о +15.4 +9.5 68 +15 +15 1016.8 1013.6
13 12.06 СЗ 4
{6}
н/о н/о +15.2 +8.9 66 +14 +14 1016.7 1013.5
14 12.06
{7}
н/о н/о +14.2 +9.6 74 1016.2 1013.0
15 12.06
{8}
н/о н/о +14.6 +9.8 73 1015.5 1012.4
16 12.06 С 4
{6}
н/о н/о +13.9 +9.8 76 +12 +12 1015.0 1011.8
17 12.06 С 5
{7}
н/о н/о +14.8 +9.0 68 +13 +13 1013.9 1010.8
18 12.06 С 4
{8}
н/о н/о +14.2 +9.4 73 +13 +13 1013.4 1010.2 +13.9 +16.6
19 12.06 С 3
{5}
н/о н/о +13.2 +10.0 81 +12 +12 1013.1 1009.9
20 12.06 СВ 3
{4}
н/о н/о +13.2 +10.4 83 +12 +12 1012.4 1009.2
21 12.06 В 3
{5}
н/о н/о +14.3 +8.7 69 +13 +13 1011.9 1008.8
22 12.06 СВ 1
{4}
н/о н/о +13.9 +9.0 72 +14 +14 1011.0 1007.9
23 12.06 В 4
{6}
н/о н/о +14.1 +8.5 69 +13 +13 1010.1 1006.9
00 13.06 В 5
{7}
н/о н/о +11.9 +10.0 88 +9 +9 1009.0 1005.8
01 13.06 СВ 1
{5}
н/о н/о +12.0 +10.9 93 +12 +12 1007.7 1004.6
02 13.06 СЗ 1
{2}
н/о н/о +11.9 +10.8 93 +12 +12 1007.0 1003.8
03 13.06 С 2
{3}
н/о н/о +11.9 +11.0 94 +11 +11 1006.0 1002.8
04 13.06 ЮВ 1
{2}
н/о н/о +12.0 +11.1 94 +12 +12 1005.9 1002.8
05 13.06 В 3
{4}
н/о н/о +11.7 +10.8 94 +10 +10 1005.6 1002.4
06 13.06 В 2
{5}
н/о н/о +12.0 +11.1 94 +11 +11 1005.3 1002.1 +11.6 +14.5
07 13.06 СВ 2
{3}
н/о н/о +12.2 +11.1 93 +11 +11 1005.2 1002.1
08 13.06 СВ 1
{5}
н/о н/о +12.5 +11.2 92 +12 +12 1005.2 1002.0
09 13.06 В 2
{3}
н/о н/о +12.9 +11.5 91 +12 +12 1005.4 1002.3
10 13.06 ЮВ 4
{7}
н/о н/о +12.8 +11.5 92 +11 +11 1005.8 1002.6
11 13.06 Ю 8
{13}
н/о н/о +13.1 +10.8 86 +10 +10 1006.2 1003.0
12 13.06 Ю 10
{16}
н/о н/о +14.2 +10.0 76 +11 +11 1006.7 1003.5
13 13.06 Ю 9
{14}
н/о н/о +14.5 +10.3 76 +12 +12 1007.5 1004.3
14 13.06 ЮВ 9
{15}
н/о н/о +14.9 +9.7 71 +13 +13 1007.6 1004.5
15 13.06 Ю 9
{17}
н/о н/о +16.2 +9.9 66 +14 +14 1007.7 1004.6
16 13.06 ЮВ 9
{14}
н/о н/о +16.3 +9.0 62 +15 +15 1008.1 1004.9
17 13.06 ЮВ 6
{13}
н/о н/о +15.4 +8.9 65 +14 +14 1008.4 1005.2
18 13.06 Ю 5
{17}
н/о н/о +13.8 +10.4 80 +12 +12 1008.8 1005.7 +11.9 +16.6
19 13.06 Ю 6
{10}
н/о н/о +13.9 +10.5 80 +12 +12 1009.2 1006.0
20 13.06 Ю 7
{10}
н/о н/о +13.7 +10.1 79 +11 +11 1009.7 1006.5
21 13.06 ЮВ 7
{12}
н/о н/о +13.9 +9.6 75 +12 +12 1010.6 1007.5
22 13.06 Ю 6
{12}
н/о н/о +13.4 +9.3 76 +11 +11 1011.1 1008.0
23 13.06 ЮВ 5
{10}
н/о н/о +13.0 +8.9 76 +11 +11 1011.6 1008.4
00 14.06 ЮВ 5
{12}
н/о н/о +12.7 +8.8 77 +11 +11 1011.7 1008.5
01 14.06 ЮВ 6
{8}
н/о н/о +12.9 +8.0 72 +11 +11 1011.5 1008.3
02 14.06 ЮВ 7
{9}
н/о н/о +13.6 +8.0 69 +11 +11 1011.6 1008.4
03 14.06 ЮВ 5
{9}
н/о н/о +13.3 +8.6 73 +11 +11 1011.9 1008.7
04 14.06 ЮВ 6
{8}
н/о н/о +14.2 +8.2 67 +12 +12 1011.9 1008.8
05 14.06 В 7
{9}
н/о н/о +14.9 +7.9 63 +13 +13 1012.2 1009.1
06 14.06 В 7
{10}
н/о н/о +14.4 +8.8 69 +12 +12 1012.4 1009.2 +12.2 +15.4
07 14.06 В 6
{9}
н/о н/о +16.1 +9.3 64 +15 +15 1012.3 1009.1
08 14.06 ЮВ 10
{14}
н/о н/о +17.1 +9.5 61 +16 +16 1012.8 1009.7
09 14.06 Ю 9
{12}
н/о н/о +17.5 +9.9 61 +16 +16 1013.6 1010.5
10 14.06 Ю 7
{11}
н/о н/о +16.4 +11.1 71 +15 +15 1014.3 1011.2
11 14.06 Ю 9
{14}
н/о н/о +17.8 +9.2 57 +17 +17 1014.5 1011.4
12 14.06 Ю 8
{14}
н/о н/о +18.5 +9.6 56 +18 +18 1014.6 1011.5
13 14.06 Ю 8
{13}
н/о н/о +17.9 +10.3 61 +17 +17 1015.2 1012.0
14 14.06 Ю 6
{12}
н/о н/о +16.2 +9.2 63 +15 +15 1015.4 1012.3
15 14.06 Ю 8
{11}
н/о н/о +17.0 +9.2 60 +16 +16 1015.1 1012.0
16 14.06 Ю 7
{13}
н/о н/о +15.8 +9.5 66 +14 +14 1015.5 1012.3
17 14.06 Ю 6
{11}
н/о н/о +17.0 +10.2 64 +16 +16 1015.7 1012.5
18 14.06 Ю 6
{13}
н/о н/о +15.3 +9.4 68 +14 +14 1016.2 1013.0 +14.3 +19.0
19 14.06 Ю 5
{8}
н/о н/о +15.1 +9.9 71 +14 +14 1016.3 1013.2
20 14.06 Ю 7
{10}
н/о н/о +14.7 +9.3 70 +13 +13 1016.9 1013.7
21 14.06 Ю 7
{12}
н/о н/о +14.5 +9.3 71 +12 +12 1017.3 1014.1
22 14.06 Ю 4
{9}
н/о н/о +13.6 +9.1 74 +12 +12 1017.6 1014.5
23 14.06 Ю 2
{6}
н/о н/о +12.5 +9.2 80 +12 +12 1018.0 1014.8
00 15.06 ЮВ 4
{12}
н/о н/о +11.6 +9.5 87 +9 +9 1018.1 1014.9
01 15.06 В 3
{4}
н/о н/о +11.0 +9.1 88 +9 +9 1018.0 1014.8
02 15.06 В 4
{4}
н/о н/о +11.0 +9.1 88 +9 +9 1017.8 1014.6
03 15.06 В 3
{4}
н/о н/о +11.4 +9.0 85 +10 +10 1017.5 1014.2
04 15.06 В 4
{4}
н/о н/о +12.9 +8.8 76 +11 +11 1017.1 1013.9
05 15.06 В 3
{4}
н/о н/о +14.6 +8.3 66 +14 +14 1017.0 1013.9
06 15.06 В 3
{5}
н/о н/о +15.4 +8.6 64 +15 +15 1016.8 1013.6 +10.8 +15.7
07 15.06 В 4
{5}
н/о н/о +17.4 +9.1 58 +17 +17 1016.9 1013.8
08 15.06 В 4
{7}
н/о н/о +19.6 +8.6 49 +21 +21 комфорт 1016.5 1013.4
09 15.06 В 4
{6}
н/о н/о +21.2 +10.1 49 +23 +23 комфорт 1016.1 1013.0
10 15.06 В 3
{6}
н/о н/о +22.0 +8.9 43 +23 +23 комфорт 1015.6 1012.5
11 15.06 С 4
{5}
н/о н/о +19.6 +10.3 55 +21 +21 комфорт 1015.3 1012.1
12 15.06 С 5
{7}
н/о н/о +19.7 +11.2 58 +21 +21 комфорт 1014.7 1011.6
13 15.06 С 5
{7}
н/о н/о +18.3 +10.7 61 +18 +18 1014.5 1011.4
14 15.06 СЗ 5
{8}
н/о н/о +19.4 +10.4 56 +20 +20 1014.2 1011.1
15 15.06 С 4
{8}
н/о н/о +16.4 +10.0 66 +16 +16 1013.7 1010.5
16 15.06
{8}
н/о н/о +15.2 +10.6 74 1012.7 1009.5
17 15.06 СВ 3
{6}
н/о н/о +15.4 +10.8 74 +15 +15 1012.7 1009.6
18 15.06 С 4
{8}
н/о н/о +14.3 +11.6 84 +13 +13 1012.7 1009.6 +14.2 +22.2
19 15.06 СВ 3
{4}
н/о н/о +14.1 +11.8 86 +13 +13 1012.7 1009.5
20 15.06 С 3
{4}
н/о н/о +13.9 +12.1 89 +13 +13 1012.3 1009.1
21 15.06 В 3
{4}
н/о н/о +15.0 +13.7 92 +14 +14 1012.0 1008.8
22 15.06 В 4
{5}
н/о н/о +15.8 +14.0 89 +15 +15 1011.7 1008.6
23 15.06 В 3
{5}
н/о н/о +15.4 +13.6 89 +15 +15 1011.6 1008.4
00 16.06 В 3
{5}
н/о н/о +15.2 +13.1 87 +14 +14 1011.1 1008.0
01 16.06 ЮВ 2
{4}
н/о н/о +14.8 +13.0 89 +14 +14 1010.7 1007.5
02 16.06 Ю 4
{5}
н/о н/о +14.7 +12.9 89 +13 +13 1010.8 1007.7
03 16.06 Ю 4
{7}
н/о н/о +13.7 +12.1 90 +12 +12 1011.1 1007.9
04 16.06 Ю 7
{10}
н/о н/о +13.5 +11.9 90 +11 +11 1011.3 1008.1
05 16.06 Ю 6
{10}
н/о н/о +12.4 +11.3 93 +10 +10 1011.8 1008.6
06 16.06 Ю 4
{10}
н/о н/о +12.3 +11.4 94 +10 +10 1012.6 1009.4 +12.3 +15.8
07 16.06 ЮЗ 4
{7}
н/о н/о +12.4 +11.5 94 +10 +10 1012.9 1009.7
08 16.06 ЮЗ 4
{6}
н/о н/о +12.3 +11.4 94 +10 +10 1013.4 1010.2
09 16.06 Ю 3
{6}
н/о н/о +13.3 +12.4 94 +12 +12 1013.9 1010.7
10 16.06 ЮВ 4
{7}
н/о н/о +14.8 +12.7 87 +14 +14 1013.9 1010.7
11 16.06 Ю 4
{8}
н/о н/о +16.0 +12.2 78 +15 +15 1014.0 1010.8
12 16.06 ЮЗ 7
{9}
н/о н/о +14.7 +10.7 77 +13 +13 1014.1 1011.0
13 16.06 ЮЗ 8
{11}
н/о н/о +15.3 +10.7 74 +13 +13 1014.3 1011.1
14 16.06 Ю 6
{12}
н/о н/о +13.5 +11.0 85 +11 +11 1014.7 1011.6
15 16.06 Ю 5
{9}
н/о н/о +14.1 +10.5 79 +12 +12 1015.1 1011.9
16 16.06 Ю 6
{9}
н/о н/о +14.0 +10.0 77 +12 +12 1015.2 1012.0
17 16.06 Ю 5
{8}
н/о н/о +13.5 +10.3 81 +12 +12 1015.5 1012.3
18 16.06 Ю 6
{12}
н/о н/о +13.9 +9.8 76 +12 +12 1015.7 1012.5 +12.2 +18.0
19 16.06 Ю 5
{9}
н/о н/о +13.9 +9.4 74 +12 +12 1015.8 1012.6
20 16.06 Ю 3
{7}
н/о н/о +13.1 +9.7 80 +12 +12 1016.0 1012.8
21 16.06 Ю 3
{5}
н/о н/о +12.1 +9.7 85 +10 +10 1016.2 1013.0
22 16.06 Ю 5
{7}
н/о н/о +11.7 +9.6 87 +9 +9 1016.2 1013.0
23 16.06 Ю 4
{7}
н/о н/о +11.6 +9.9 89 +9 +9 1016.2 1013.0
00 17.06 ЮВ 5
{9}
н/о н/о +11.3 +9.6 89 +9 +9 1016.2 1013.0
01 17.06 ЮВ 5
{7}
н/о н/о +10.8 +9.1 89 +8 +8 1016.1 1012.9
02 17.06 Ю 5
{8}
н/о н/о +11.1 +8.5 84 +8 +8 1015.8 1012.6
03 17.06 ЮВ 5
{8}
н/о н/о +11.0 +8.1 82 +8 +8 1015.4 1012.2
04 17.06 ЮВ 6
{8}
н/о н/о +12.0 +8.1 77 +9 +9 1015.2 1012.0
05 17.06 ЮВ 6
{10}
н/о н/о +13.1 +8.0 71 +11 +11 1014.7 1011.5
06 17.06 ЮВ 8
{12}
н/о н/о +13.3 +8.0 70 +11 +11 1014.5 1011.3 +10.7 +14.3
07 17.06 ЮВ 9
{12}
н/о н/о +14.5 +9.9 74 +12 +12 1014.2 1011.0
08 17.06 ЮВ 9
{14}
н/о н/о +15.0 +9.8 71 +13 +13 1013.7 1010.6
09 17.06 Ю 7
{15}
н/о н/о +15.2 +10.4 73 +13 +13 1013.4 1010.2
10 17.06 Ю 8
{13}
н/о н/о +14.8 +11.2 79 +13 +13 1013.2 1010.0
11 17.06 Ю 10
{16}
н/о н/о +14.3 +11.5 83 +12 +12 1013.4 1010.2
12 17.06 Ю 10
{17}
н/о н/о +14.3 +11.5 83 +12 +12 1013.6 1010.4
13 17.06 Ю 9
{16}
н/о н/о +14.5 +10.9 79 +12 +12 1013.7 1010.5
14 17.06 Ю 9
{13}
н/о н/о +14.0 +11.0 82 +11 +11 1013.8 1010.6
15 17.06 Ю 9
{13}
н/о н/о +13.5 +11.0 85 +11 +11 1013.8 1010.6
16 17.06 Ю 8
{12}
н/о н/о +13.1 +11.7 91 +10 +10 1013.6 1010.4
17 17.06 Ю 8
{12}
н/о н/о +13.1 +11.8 92 +10 +10 1013.3 1010.2
18 17.06 Ю 8
{16}
н/о н/о +13.2 +11.4 89 +10 +10 1013.5 1010.3 +13.0 +15.6
19 17.06 Ю 8
{13}
н/о н/о +13.1 +11.2 88 +10 +10 1013.8 1010.6
20 17.06 Ю 8
{13}
н/о н/о +13.1 +11.0 87 +10 +10 1013.7 1010.5
21 17.06 Ю 9
{13}
н/о н/о +13.1 +11.0 87 +10 +10 1013.8 1010.6
22 17.06 Ю 7
{12}
н/о н/о +13.1 +11.0 87 +10 +10 1013.5 1010.3
23 17.06 Ю 7
{12}
н/о н/о +13.0 +10.7 86 +10 +10 1013.0 1009.9
00 18.06 Ю 9
{14}
н/о н/о +13.0 +11.1 88 +10 +10 1012.8 1009.6
01 18.06 Ю 8
{13}
н/о н/о +12.9 +11.1 89 +10 +10 1012.7 1009.5
02 18.06 Ю 6
{11}
н/о н/о +12.8 +11.0 89 +10 +10 1012.5 1009.3
03 18.06 Ю 6
{10}
н/о н/о +12.9 +11.0 88 +10 +10 1012.2 1009.0
04 18.06 Ю 7
{11}
н/о н/о +13.1 +11.0 87 +10 +10 1012.0 1008.8
05 18.06 Ю 7
{14}
н/о н/о +12.6 +9.3 80 +10 +10 1012.0 1008.8
06 18.06 Ю 6
{14}
н/о н/о +13.9 +10.9 82 +12 +12 1012.0 1008.8 +12.6 +13.9
07 18.06 Ю 7
{10}
н/о н/о +14.4 +10.8 79 +12 +12 1011.9 1008.8
08 18.06 Ю 7
{10}
н/о н/о +15.3 +10.5 73 +14 +14 1011.9 1008.8
09 18.06 Ю 8
{11}
н/о н/о +15.9 +10.5 70 +14 +14 1011.7 1008.6
10 18.06 Ю 7
{11}
н/о н/о +16.6 +10.5 67 +15 +15 1011.6 1008.5
11 18.06 Ю 7
{11}
н/о н/о +16.9 +11.0 68 +16 +16 1011.6 1008.4
12 18.06 Ю 7
{11}
н/о н/о +16.3 +10.8 70 +15 +15 1011.6 1008.4
13 18.06 Ю 7
{11}
н/о н/о +16.2 +10.7 70 +15 +15 1011.6 1008.4
14 18.06 Ю 8
{12}
н/о н/о +16.9 +10.7 67 +16 +16 1011.4 1008.2
15 18.06 Ю 8
{13}
н/о н/о +14.2 +11.0 81 +12 +12 1011.4 1008.2
16 18.06 Ю 7
{10}
н/о н/о +15.8 +9.3 65 +14 +14 1011.1 1007.9
17 18.06 Ю 7
{11}
н/о н/о +14.3 +10.7 79 +12 +12 1011.4 1008.2
18 18.06 Ю 7
{13}
н/о н/о +14.3 +10.1 76 +12 +12 1011.5 1008.3 +13.7 +17.3
19 18.06 Ю 5
{9}
н/о н/о +13.8 +10.6 81 +12 +12 1011.7 1008.5
20 18.06 Ю 5
{8}
н/о н/о +13.2 +10.2 82 +11 +11 1011.8 1008.6
21 18.06 Ю 5
{7}
н/о н/о +12.3 +10.2 87 +10 +10 1011.9 1008.7
22 18.06 Ю 4
{7}
н/о н/о +11.8 +9.9 88 +10 +10 1011.9 1008.7
23 18.06 Ю 4
{6}
н/о н/о +11.1 +9.2 88 +9 +9 1011.9 1008.7
00 19.06 Ю 5
{9}
н/о н/о +11.5 +10.3 92 +9 +9 1011.6 1008.4
01 19.06 ЮВ 4
{6}
н/о н/о +11.8 +10.4 91 +10 +10 1011.5 1008.3
02 19.06 Ю 4
{6}
н/о н/о +12.0 +10.6 91 +10 +10 1011.4 1008.2
03 19.06 ЮВ 5
{7}
н/о н/о +12.3 +10.7 90 +10 +10 1011.3 1008.1

 

Местоположение метеостанции Аэропорт Haugesund (Норвегия): широта 59.35 долгота 5.20 высота над уровнем моря 24 м.

В архиве по умолчанию представлена погода в Аэропорту Haugesund за последнюю неделю. Архивные данные за месяц целиком и за предыдущие месяцы, начиная с января 2011 года, Вы можете получить, выбрав интересующий диапазон дат из раскрывающегося списка и нажав кнопку "Ввод!".


*Определитесь, кто Вы:
робот инопланетянин человек

Внимание! Время в таблицах - всемирное. Для получения местного времени необходимо прибавить поправку, которая равна 1 ч.

Смотрите также архив погоды в соседних городах и на ближайших метеорологических станциях:

Погода в Роваере (Норвегия) (12 км)
Погода на Маяке Utsira (Норвегия) (19 км)
Погода в Недре Ватс (Норвегия) (33 км)
Погода в Квитсёй (Норвегия) (34 км)
Погода в Фистере (Норвегия) (51 км)
Погода в Ставангере (Норвегия) (53 км)
Погода в Ставангер аэропорту (Норвегия) (58 км)
Погода на Лярватне (Норвегия) (62 км)
Погода на Маяке Slatteroy (Норвегия) (63 км)
Погода в Сархейме (Норвегия) (70 км)

Пояснения к столбцам:

Ветер - указаны скорость ветра в м/с - средняя за 10 мин, порывы в срок и между сроками (в фигурных скобках) и направление, откуда дует ветер: С - северный, СВ - северо-восточный, В - восточный, ЮВ - юго-восточный, Ю - южный, ЮЗ - юго-западный, З - западный, СЗ - северо-западный.
Видимость - горизонтальная дальность видимости в метрах или километрах. При видимости от 1 до 10 км при отсутствии осадков обычно наблюдается дымка, при ухудшении видимости до 1 км и менее - туман. В сухую погоду видимость может ухудшаться дымом, пылью или мглою.
Явления - указаны атмосферные явления, наблюдавшиеся в срок или в последний час перед сроком; фигурными скобками обозначены явления, наблюдавшиеся между сроками (за 1-3 часа до срока); квадратными скобками обозначены град или гололедные отложения с указанием их диаметра в мм.
Облачность - указаны через наклонную черту общая и нижняя облачность в баллах и высота нижней границы облаков в метрах; квадратными скобками обозначены формы облаков: Ci - перистые, Cs - перисто-слоистые, Cc - перисто-кучевые, Ac - высококучевые, As - высокослоистые, Sc - слоисто-кучевые, Ns - слоисто-дождевые, Cu - кучевые, Cb - кучево-дождевые. Подробнее классификацию облаков см. в Атласе облаков (PDF).
T - Температура воздуха - температура, измеренная на высоте 2 м над землей.
Td - Температура точки росы - температура, при понижении до которой содержащийся в воздухе водяной пар достигнет насыщения.
f - Относительная влажность воздуха - влажноcть воздуха, измеренная на высоте 2 м над землей.
Te - Эффективная температура - температура, которую ощущает одетый по сезону человек в тени. Характеристика душности погоды. При расчете учитывается влияние влажности воздуха и скорости ветра на теплоощущения человека.
Tes - Эффективная температура на солнце - температура, которую ощущает человек, с поправкой на солнечный нагрев. Характеристика знойности погоды. Зависит от высоты солнца над горизонтом, облачности и скорости ветра. Ночью, в пасмурную погоду, а также при ветре 12 м/с и более поправка равна нулю.
P - Атмосферное давление - приведенное к уровню моря атмосферное давление.
Po - Атмосферное давление - измеренное на уровне метеостанции атмосферное давление.
Tmin - Минимальная температура - минимум температуры воздуха на высоте 2 м над землей.
Tmax - Максимальная температура - максимум температуры воздуха на высоте 2 м над землей.
R - Количество осадков - Количество выпавших осадков за период времени, мм. При наведении курсора мыши на число - период времени, за который выпало указанное количество осадков.
R24 - Количество осадков - Количество выпавших осадков за 24 часа, мм.
S - Снежный покров - Высота снежного покрова, см. При наведении курсора мыши на число - состояние снежного покрова и степень покрытия местности в баллах.